[[{"header":{"parameterUnit":"m.s-1","parameterCategory":1,"la1":30.2991,"la2":30.254,"lo1":-89.0895,"lo2":-89.0444,"dy":0.0017,"dx":0.0017,"nx":28,"ny":28,"refTime":"2023-10-07T21:00:00:Z","depth":0,"parameterNumber":2,"parameterNumberName":"U-component_of_WINDS"},"data":[0,0,0,0,0,0,0,0,0,0,0,0,0,0,0,0,0,0,0,0,0,0,0,0,0,0,0,0,0,0,0,0,0,0,0,0,0,0,0,0,0,0,0,0,0,0,0,0,0,0,0,0,0,0,0,0,0,0,-0.1484,-0.1484,0,-0.1478,-0.1478,-0.1478,-0.1464,-0.1464,-0.1464,-0.1463,-0.1458,-0.1458,-0.1458,0,0,0,0,0,0,0,0,0,0,0,0,0,-0.1483,-0.1483,-0.1484,-0.1484,-0.1484,-0.1478,-0.1478,-0.1478,-0.1464,-0.1464,-0.1464,-0.1463,-0.1458,-0.1458,-0.1458,0,0,0,0,0,0,0,0,0,0,0,0,0,-0.1481,-0.1483,-0.1484,-0.1477,-0.1476,-0.1478,-0.1478,-0.1478,-0.1464,-0.1464,-0.1464,-0.1463,-0.1458,-0.1458,-0.1458,-0.1468,0,0,-0.1458,-0.1458,0,0,0,0,0,0,0,0,-0.1481,-0.1481,-0.1478,-0.1477,-0.1476,-0.1472,-0.1476,-0.1475,-0.1465,-0.1469,-0.1463,-0.1463,-0.1463,-0.1462,-0.1462,-0.1467,-0.1467,-0.1458,-0.1458,-0.1459,-0.1459,0,0,0,0,0,0,0,-0.1481,-0.1481,-0.1482,-0.1478,-0.1477,-0.1473,-0.1472,-0.1475,-0.1468,-0.1468,-0.1467,-0.1467,-0.1462,-0.1462,-0.1462,-0.1467,-0.1458,-0.1459,-0.1459,-0.1459,-0.1479,-0.1479,0,0,0,0,0,0,-0.1483,-0.1482,-0.1482,-0.1482,-0.1478,-0.1474,-0.1473,-0.1474,-0.1468,-0.1467,-0.1467,-0.1466,-0.1462,-0.1462,-0.1462,-0.1472,-0.1459,-0.1459,-0.1459,-0.1479,-0.1479,-0.148,0,0,0,0,0,0,-0.1483,-0.1483,-0.1482,-0.1481,-0.1481,-0.1474,-0.1475,-0.1474,-0.1474,-0.1467,-0.1466,-0.1469,-0.1462,-0.1461,-0.1466,-0.1472,-0.1459,-0.1459,-0.1478,-0.1479,-0.1479,-0.1494,0,0,0,0,0,0,-0.1483,-0.1483,-0.1487,-0.1482,-0.1481,-0.1487,-0.1476,-0.1474,-0.1474,-0.1473,-0.1468,-0.1467,-0.1461,-0.1466,-0.1466,-0.1472,-0.1459,-0.1477,-0.1478,-0.1479,-0.1493,-0.1495,-0.1497,0,0,0,0,0,-0.1483,-0.1492,-0.1487,-0.1487,-0.1486,-0.1488,-0.1487,-0.1481,-0.1475,-0.1478,-0.1474,-0.1467,-0.1471,-0.1466,-0.1467,-0.1473,-0.1477,-0.1478,-0.1479,-0.1492,-0.1495,-0.1497,0,0,0,0,0,0,-0.1498,-0.1491,-0.1486,-0.1493,-0.1491,-0.1485,-0.149,-0.1484,-0.1483,-0.1482,-0.1474,-0.1473,-0.1478,-0.1476,-0.1471,-0.1481,-0.1473,-0.1474,-0.1483,-0.1485,-0.1487,-0.1488,-0.1459,0,0,0,0,0,-0.1502,-0.1504,-0.1498,-0.1505,-0.1504,-0.1497,-0.1497,-0.1492,-0.149,-0.1489,-0.1485,-0.1483,-0.1483,-0.1484,-0.1485,-0.1493,-0.1491,-0.1497,-0.1499,-0.15,-0.1502,-0.1505,-0.1507,-0.1483,-0.1483,-0.1483,0,0,-0.1511,-0.1507,-0.1509,-0.1508,-0.1506,-0.1508,-0.1496,-0.1499,-0.1501,-0.1489,-0.1493,-0.149,-0.1487,-0.1493,-0.1496,-0.1492,-0.1508,-0.1502,-0.1503,-0.1503,-0.1506,-0.1509,-0.1511,-0.1483,-0.1483,-0.1483,0,0,-0.1528,-0.1526,-0.1531,-0.1529,-0.1525,-0.152,-0.1522,-0.1516,-0.1514,-0.1518,-0.1509,-0.151,-0.1512,-0.151,-0.1509,-0.1524,-0.1518,-0.1525,-0.1535,-0.1539,-0.1541,-0.1542,-0.1548,-0.155,-0.1526,-0.1526,-0.1526,0,-0.154,-0.1543,-0.1535,-0.1538,-0.1537,-0.1526,-0.1532,-0.153,-0.1527,-0.1527,-0.1522,-0.1523,-0.152,-0.1525,-0.1529,-0.1529,-0.153,-0.1525,-0.1541,-0.1543,-0.1544,-0.1549,-0.1551,-0.1527,-0.1526,-0.1526,-0.1526,0,-0.1557,-0.1559,-0.1563,-0.156,-0.156,-0.1565,-0.1557,-0.1558,-0.1552,-0.1548,-0.1551,-0.1547,-0.1546,-0.1547,-0.1542,-0.1552,-0.1549,-0.1543,-0.1534,-0.1548,-0.1552,-0.1554,-0.1528,-0.1527,-0.1527,-0.1527,0,0,-0.1584,-0.1576,-0.1578,-0.1576,-0.1571,-0.1572,-0.1576,-0.1574,-0.1575,-0.1573,-0.1576,-0.1577,-0.157,-0.1569,-0.1564,-0.1567,-0.1579,-0.156,-0.156,-0.1564,-0.1589,-0.1594,-0.1596,-0.1574,-0.1575,-0.1575,-0.1589,0,-0.1601,-0.1606,-0.1598,-0.1605,-0.1607,-0.1596,-0.1599,-0.1596,-0.1592,-0.1592,-0.1587,-0.1588,-0.158,-0.1579,-0.1582,-0.1577,-0.1584,-0.1576,-0.1577,-0.1577,-0.1578,-0.1599,-0.1604,-0.1618,-0.1591,-0.1591,-0.1591,0,-0.162,-0.1619,-0.1626,-0.162,-0.162,-0.1623,-0.1621,-0.1621,-0.1617,-0.1614,-0.1612,-0.1605,-0.1608,-0.1599,-0.1602,-0.1597,-0.1597,-0.1594,-0.1595,-0.1595,-0.1585,-0.16,-0.1622,-0.1625,-0.1594,-0.1594,-0.1594,0,-0.164,-0.164,-0.1644,-0.1642,-0.1635,-0.1637,-0.1634,-0.163,-0.1629,-0.1627,-0.1627,-0.1625,-0.1625,-0.1624,-0.1616,-0.161,-0.162,-0.1611,-0.1617,-0.1618,-0.1621,-0.1621,-0.1644,-0.162,-0.162,-0.162,-0.162,0,-0.1659,-0.1664,-0.1652,-0.1655,-0.166,-0.165,-0.1655,-0.1651,-0.1647,-0.1649,-0.1639,-0.1641,-0.1631,-0.1631,-0.1625,-0.1629,-0.1628,-0.1626,-0.1624,-0.1627,-0.1627,-0.1627,-0.1626,-0.162,-0.162,-0.162,-0.162,0,-0.1682,-0.1674,-0.1678,-0.1671,-0.1669,-0.1673,-0.1666,-0.1668,-0.1663,-0.1664,-0.1664,-0.1656,-0.1656,-0.1648,-0.1646,-0.1642,-0.1648,-0.1645,-0.165,-0.1649,-0.1656,-0.1655,-0.168,-0.1683,-0.1657,-0.1657,-0.1657,0,-0.1695,-0.1698,-0.1691,-0.1691,-0.1688,-0.1689,-0.1688,-0.1679,-0.1678,-0.1674,-0.1676,-0.1675,-0.1674,-0.1674,-0.1667,-0.1666,-0.1662,-0.1671,-0.1662,-0.1665,-0.1663,-0.1663,-0.1663,-0.1673,-0.1674,-0.1674,-0.1674,0,-0.1719,-0.1714,-0.1714,-0.1712,-0.1711,-0.1709,-0.1706,-0.1707,-0.1696,-0.1696,-0.1696,-0.1695,-0.1692,-0.1692,-0.1689,-0.1685,-0.1678,-0.1677,-0.1678,-0.1681,-0.1684,-0.1683,-0.1655,-0.1676,-0.1676,-0.1676,-0.1676,-0.1676,-0.1737,-0.1739,-0.1734,-0.1734,-0.173,-0.1728,-0.1729,-0.1724,-0.1723,-0.172,-0.1715,-0.1715,-0.171,-0.1705,-0.1703,-0.1703,-0.1698,-0.17,-0.1701,-0.1702,-0.1703,-0.1683,-0.1702,-0.1702,-0.1702,-0.1702,-0.1702,0,-0.176,-0.1756,-0.1756,-0.1752,-0.1751,-0.1744,-0.174,-0.174,-0.174,-0.1736,-0.1735,-0.1734,-0.1733,-0.1726,-0.1724,-0.1725,-0.1722,-0.1725,-0.1725,-0.1724,-0.1707,-0.1706,-0.1728,-0.1728,-0.1728,-0.1728,-0.1728,-0.1728,-0.1773,-0.1776,-0.1771,-0.1772,-0.1768,-0.1768,-0.1767,-0.1764,-0.1761,-0.176,-0.1759,-0.1754,-0.1749,-0.1746,-0.1745,-0.1743,-0.1743,-0.1747,-0.1744,-0.1728,-0.1726,-0.1723,-0.1722,-0.1747,-0.1747,-0.1761,-0.1761,-0.1761]},{"header":{"parameterUnit":"m.s-1","parameterCategory":1,"la1":30.2991,"la2":30.254,"lo1":-89.0895,"lo2":-89.0444,"dy":0.0017,"dx":0.0017,"nx":28,"ny":28,"refTime":"2023-10-07T21:00:00:Z","depth":0,"parameterNumber":3,"parameterNumberName":"V-component_of_WINDS"},"data":[0,0,0,0,0,0,0,0,0,0,0,0,0,0,0,0,0,0,0,0,0,0,0,0,0,0,0,0,0,0,0,0,0,0,0,0,0,0,0,0,0,0,0,0,0,0,0,0,0,0,0,0,0,0,0,0,0,0,-5.86,-5.8601,0,-5.8669,-5.8669,-5.867,-5.8624,-5.8622,-5.862,-5.8618,-5.8683,-5.8687,-5.8691,0,0,0,0,0,0,0,0,0,0,0,0,0,-5.8427,-5.843,-5.86,-5.8601,-5.8602,-5.8668,-5.8669,-5.867,-5.8624,-5.8622,-5.8619,-5.8617,-5.8682,-5.8687,-5.8691,0,0,0,0,0,0,0,0,0,0,0,0,0,-5.8499,-5.8431,-5.86,-5.8587,-5.8586,-5.8668,-5.8669,-5.8671,-5.8625,-5.8621,-5.8618,-5.8615,-5.8681,-5.8686,-5.8692,-5.8789,0,0,-5.8709,-5.8711,0,0,0,0,0,0,0,0,-5.8495,-5.8505,-5.8588,-5.8588,-5.8588,-5.8634,-5.8632,-5.871,-5.8625,-5.861,-5.8618,-5.8614,-5.8669,-5.8676,-5.8695,-5.8792,-5.8795,-5.8709,-5.8713,-5.8715,-5.8716,0,0,0,0,0,0,0,-5.849,-5.8502,-5.8627,-5.8589,-5.8589,-5.8577,-5.8584,-5.8647,-5.8656,-5.8611,-5.8608,-5.8617,-5.8669,-5.869,-5.8696,-5.8796,-5.8709,-5.8714,-5.8717,-5.872,-5.8977,-5.8981,0,0,0,0,0,0,-5.8487,-5.8498,-5.8625,-5.8629,-5.8533,-5.8582,-5.859,-5.8623,-5.8656,-5.8658,-5.8619,-5.8614,-5.8682,-5.869,-5.8699,-5.8817,-5.8715,-5.872,-5.8723,-5.8974,-5.8978,-5.8982,0,0,0,0,0,0,-5.8483,-5.8498,-5.8622,-5.8563,-5.8578,-5.8589,-5.8626,-5.8626,-5.8647,-5.8662,-5.8663,-5.864,-5.868,-5.8691,-5.8768,-5.8818,-5.8723,-5.8728,-5.897,-5.8975,-5.898,-5.9052,0,0,0,0,0,0,-5.8478,-5.8497,-5.8535,-5.8564,-5.8581,-5.8691,-5.8629,-5.8629,-5.8657,-5.8651,-5.8681,-5.8683,-5.8678,-5.876,-5.8773,-5.8824,-5.8732,-5.8965,-5.8972,-5.8978,-5.9045,-5.9059,-5.9071,0,0,0,0,0,-5.8472,-5.8551,-5.8537,-5.8553,-5.8629,-5.8694,-5.8704,-5.8698,-5.8661,-5.8699,-5.8709,-5.8682,-5.881,-5.8768,-5.8783,-5.8836,-5.8962,-5.897,-5.8978,-5.904,-5.9057,-5.9071,0,0,0,0,0,0,-5.8526,-5.8555,-5.854,-5.863,-5.8661,-5.8686,-5.8734,-5.8715,-5.8755,-5.8748,-5.8737,-5.8744,-5.8825,-5.8837,-5.879,-5.8933,-5.888,-5.8892,-5.8922,-5.8938,-5.8951,-5.8947,-5.8737,0,0,0,0,0,-5.8548,-5.86,-5.8622,-5.87,-5.8716,-5.8723,-5.8751,-5.8744,-5.8773,-5.8785,-5.8801,-5.883,-5.8877,-5.8908,-5.8951,-5.9046,-5.9053,-5.909,-5.9103,-5.9114,-5.9124,-5.9177,-5.9195,-5.9008,-5.9008,-5.9008,0,0,-5.8595,-5.8617,-5.865,-5.8711,-5.8734,-5.8788,-5.8733,-5.8791,-5.8831,-5.8794,-5.8869,-5.8881,-5.8912,-5.8999,-5.9038,-5.9012,-5.9177,-5.9124,-5.9132,-5.9137,-5.9187,-5.9205,-5.9221,-5.9013,-5.9012,-5.9012,0,0,-5.8708,-5.873,-5.8799,-5.8823,-5.8858,-5.8862,-5.8879,-5.8908,-5.8915,-5.899,-5.8964,-5.901,-5.909,-5.9115,-5.9138,-5.9262,-5.924,-5.9276,-5.9344,-5.9396,-5.9411,-5.9424,-5.9471,-5.9487,-5.9286,-5.9286,-5.9286,0,-5.8762,-5.8843,-5.8836,-5.8897,-5.8925,-5.8896,-5.8965,-5.8988,-5.9035,-5.9055,-5.9026,-5.9128,-5.9147,-5.924,-5.9271,-5.929,-5.9309,-5.9274,-5.941,-5.9423,-5.9435,-5.9479,-5.9496,-5.9291,-5.929,-5.929,-5.9289,0,-5.8908,-5.8964,-5.9015,-5.9065,-5.9098,-5.9163,-5.9165,-5.92,-5.919,-5.9197,-5.9274,-5.9296,-5.9345,-5.9366,-5.9356,-5.9459,-5.9442,-5.9411,-5.9358,-5.9457,-5.9499,-5.9515,-5.9297,-5.9295,-5.9294,-5.9293,0,0,-5.9057,-5.9103,-5.9122,-5.9145,-5.9182,-5.9225,-5.9289,-5.9338,-5.9369,-5.9402,-5.9456,-5.9526,-5.9499,-5.9525,-5.9517,-5.9562,-5.9662,-5.9526,-5.9527,-5.9553,-5.9779,-5.9804,-5.9823,-5.9647,-5.965,-5.9652,-5.9777,0,-5.9174,-5.9288,-5.9284,-5.9389,-5.9442,-5.9415,-5.9471,-5.95,-5.9508,-5.9553,-5.9561,-5.9612,-5.9571,-5.9587,-5.963,-5.9641,-5.9708,-5.9631,-5.9697,-5.97,-5.9693,-5.9845,-5.987,-5.9987,-5.9793,-5.9796,-5.9798,0,-5.9326,-5.9368,-5.948,-5.9511,-5.9533,-5.9584,-5.963,-5.9673,-5.9705,-5.9708,-5.9739,-5.9724,-5.9788,-5.9733,-5.9822,-5.977,-5.9797,-5.9806,-5.981,-5.9818,-5.9756,-5.9858,-6.0024,-6.0043,-5.9823,-5.9821,-5.9819,0,-5.9427,-5.951,-5.9589,-5.9608,-5.9647,-5.9683,-5.9701,-5.973,-5.976,-5.98,-5.982,-5.9866,-5.9891,-5.9927,-5.9925,-5.9884,-6.0016,-5.996,-6.0021,-6.0021,-6.0051,-6.005,-6.0226,-6.0064,-6.0064,-6.0064,-6.0063,0,-5.956,-5.9629,-5.9635,-5.9683,-5.9761,-5.9755,-5.9832,-5.9845,-5.9872,-5.9922,-5.9899,-5.9947,-5.994,-5.9988,-5.9986,-6.0062,-6.0072,-6.0077,-6.0076,-6.008,-6.008,-6.0099,-6.0092,-6.0068,-6.0067,-6.0067,-6.0066,0,-5.9686,-5.9692,-5.9776,-5.9806,-5.9816,-5.9872,-5.9897,-5.9943,-5.9949,-6.0013,-6.0028,-6.0038,-6.0093,-6.0094,-6.0156,-6.0155,-6.0248,-6.0236,-6.0238,-6.0237,-6.0298,-6.0294,-6.0495,-6.0521,-6.0341,-6.0342,-6.0344,0,-5.9771,-5.9825,-5.9862,-5.9895,-5.9915,-5.9968,-6.0,-5.9996,-6.003,-6.0072,-6.0113,-6.0166,-6.0209,-6.0298,-6.031,-6.0358,-6.0349,-6.0416,-6.0356,-6.0359,-6.0353,-6.0351,-6.0357,-6.0428,-6.043,-6.0432,-6.0433,0,-5.9923,-5.9924,-5.9972,-6.0022,-6.0062,-6.01,-6.0135,-6.0163,-6.0163,-6.0203,-6.026,-6.0293,-6.0358,-6.0411,-6.0458,-6.0474,-6.0455,-6.0452,-6.0469,-6.0475,-6.0475,-6.0478,-6.0273,-6.0448,-6.0446,-6.0445,-6.0444,-6.0444,-6.0033,-6.0081,-6.0115,-6.017,-6.0196,-6.0231,-6.0276,-6.029,-6.0338,-6.0392,-6.0386,-6.045,-6.0481,-6.0542,-6.0563,-6.0612,-6.0589,-6.0613,-6.0619,-6.0626,-6.0634,-6.0465,-6.062,-6.0619,-6.0619,-6.0619,-6.0618,0,-6.0186,-6.0207,-6.0258,-6.031,-6.0353,-6.0331,-6.037,-6.0407,-6.0465,-6.0496,-6.054,-6.0606,-6.0658,-6.0675,-6.0725,-6.0762,-6.0754,-6.0775,-6.0774,-6.0778,-6.0651,-6.0632,-6.0781,-6.0781,-6.0781,-6.0781,-6.0781,-6.0781,-6.0271,-6.0351,-6.0357,-6.045,-6.047,-6.0534,-6.0558,-6.059,-6.0616,-6.0692,-6.0736,-6.0747,-6.0773,-6.0825,-6.0872,-6.0876,-6.0896,-6.0922,-6.0922,-6.0803,-6.0787,-6.0771,-6.0754,-6.0926,-6.0926,-6.1046,-6.1047,-6.1048]}]]